This is the latest recevied weather packets stored in our database for station/object AE5HO. If no packets are shown the sender has not sent any weather packets the latest 10 day(s).
| Time | Temp. | Humidity | Pressure | Rain* | Wind** | Luminosity | Snow |
|---|---|---|---|---|---|---|---|
| 1778110495 | 17.78° C | 73% | 1014.3 hPa | 0 mm | - | 32 W/m² | - |
| 1778110191 | 17.78° C | 72% | 1014.4 hPa | 0 mm | - | 38 W/m² | - |
| 1778109888 | 18.33° C | 72% | 1014.1 hPa | 0 mm | - | 38 W/m² | - |
| 1778109584 | 18.33° C | 72% | 1014 hPa | 0 mm | - | 35 W/m² | - |
| 1778109281 | 18.33° C | 72% | 1014.1 hPa | 0 mm | - | 39 W/m² | - |
| 1778108978 | 18.33° C | 72% | 1013.7 hPa | 0 mm | - | 48 W/m² | - |
| 1778108674 | 18.33° C | 72% | 1013.9 hPa | 0 mm | - | 77 W/m² | - |
| 1778108371 | 18.33° C | 72% | 1013.9 hPa | 0 mm | - | 73 W/m² | - |
| 1778108069 | 18.89° C | 71% | 1014.1 hPa | 0 mm | - | 91 W/m² | - |
| 1778107766 | 19.44° C | 71% | 1013.9 hPa | 0 mm | - | 78 W/m² | - |
| 1778107463 | 18.89° C | 72% | 1013.8 hPa | 0 mm | - | 116 W/m² | - |
| 1778107159 | 18.89° C | 71% | 1013.7 hPa | 0 mm | - | 88 W/m² | - |
| 1778106854 | 18.89° C | 72% | 1013.9 hPa | 0 mm | - | 116 W/m² | - |
| 1778106552 | 18.89° C | 71% | 1013.9 hPa | 0 mm | - | 91 W/m² | - |
| 1778106248 | 18.89° C | 71% | 1014 hPa | 0 mm | - | 114 W/m² | - |
| 1778105946 | 18.89° C | 71% | 1013.7 hPa | 0 mm | - | 146 W/m² | - |
| 1778105643 | 18.33° C | 71% | 1013.7 hPa | 0 mm | - | 122 W/m² | - |
| 1778105340 | 18.89° C | 71% | 1013.9 hPa | 0 mm | - | 125 W/m² | - |
| 1778105036 | 18.89° C | 71% | 1014.1 hPa | 0 mm | - | 142 W/m² | - |
| 1778104732 | 17.78° C | 72% | 1014 hPa | 0 mm | - | 157 W/m² | - |
| 1778104428 | 17.78° C | 73% | 1014 hPa | 0 mm | - | 159 W/m² | - |
| 1778104124 | 17.22° C | 73% | 1014.2 hPa | 0 mm | - | 67 W/m² | - |
| 1778103821 | 17.22° C | 74% | 1013.8 hPa | 0 mm | - | 87 W/m² | - |
| 1778103519 | 17.22° C | 73% | 1013.5 hPa | 0 mm | - | 120 W/m² | - |
| 1778103217 | 17.22° C | 73% | 1013.7 hPa | 0 mm | - | 103 W/m² | - |
* Rain latest hour (hover to see other rain measurements)
** Current wind speed in m/s (hover to see current wind gust speed)